Overview Statistics Trail Chart Weather Telemetry Raw packets
 

This is the latest recevied weather packets stored in our database for station/object W0WC. If no packets are shown the sender has not sent any weather packets the latest 10 day(s).

<< 81 82 83 84 85 86 87 >>
Time Temp. Humidity Pressure Rain* Wind** Luminosity Snow
1788099603 28.33° C 47% 1017 hPa 0 mm - 287 W/m² -
1788099298 28.33° C 47% 1017.1 hPa 0 mm - 275 W/m² -
1788098993 27.78° C 48% 1017.2 hPa 0 mm - 275 W/m² -
1788098693 27.78° C 48% 1017.2 hPa 0 mm - 92 W/m² -
1788098392 27.78° C 49% 1017.3 hPa 0 mm - 221 W/m² -
1788098087 27.78° C 49% 1017.2 hPa 0 mm - 112 W/m² -
1788097783 27.22° C 49% 1017.3 hPa 0 mm - 88 W/m² -
1788097478 27.22° C 50% 1017.1 hPa 0 mm - 70 W/m² -
1788097173 27.22° C 50% 1017.1 hPa 0 mm - 181 W/m² -
1788096869 26.67° C 51% 1017.1 hPa 0 mm - 70 W/m² -
1788096564 26.67° C 51% 1017.1 hPa 0 mm - 159 W/m² -
1788096261 26.67° C 52% 1017.1 hPa 0 mm - 142 W/m² -
1788095960 26.11° C 52% 1017.1 hPa 0 mm - 130 W/m² -
1788095654 25.56° C 53% 1017.1 hPa 0 mm - 115 W/m² -
1788095354 25.56° C 53% 1017 hPa 0 mm - 69 W/m² -
1788095050 25.56° C 53% 1016.8 hPa 0 mm - 81 W/m² -
1788094748 25.56° C 53% 1016.9 hPa 0 mm - 86 W/m² -
1788094444 25.56° C 54% 1017.1 hPa 0 mm - 77 W/m² -
1788094142 25° C 54% 1017 hPa 0 mm - 67 W/m² -
1788093837 25° C 54% 1016.9 hPa 0 mm - 62 W/m² -
1788093533 25° C 54% 1016.9 hPa 0 mm - 56 W/m² -
1788093230 25° C 54% 1016.8 hPa 0 mm - 48 W/m² -
1788092927 25° C 55% 1016.9 hPa 0 mm - 42 W/m² -
1788092625 25° C 55% 1016.8 hPa 0 mm - 35 W/m² -
1788092317 25° C 55% 1016.8 hPa 0 mm - 29 W/m² -

* Rain latest hour (hover to see other rain measurements)
** Current wind speed in m/s (hover to see current wind gust speed)